Погода в Соловьёвке

Россия / Омская область     54°28′49″N   71°17′06″E
темп.,
°C
ветер,
м/с
пор.,
м/с
влажн.,
%
обл.,
%
осадки,
мм/ч
давл.,
гПа
погр.,
м
13 мая, чт
чт1300:00+13с5104866 0.0 1023269
03:00+11ссз385996 0.0 1024179
06:00+11ссз3649100 0.0 1024213
09:00+15сз4736100 0.0 1024616
12:00+16зсз484698 0.0 1022613
15:00+23ссз81137100 0.0 10192556
18:00+20с475199 0.1 1020456
21:00+17ссз6127178 0.4 1021541
14 мая, пт
пт1400:00+14с410875 0.4 1023195
03:00+11ссв34915 0.0 102468
06:00+11св34875 0.0 102678
09:00+16св33595 0.0 1028534
12:00+19с33385 0.0 10281328
15:00+22ссз342726 0.0 10271731
18:00+24сз342618 0.0 10261710
21:00+20зюз22364 0.0 102511
15 мая, сб
сб1500:00+18юз46395 0.0 102472
03:00+17юз4104276 0.0 1024149
06:00+16зюз4135264 0.1 1023256
09:00+23з7123538 0.1 1023643
12:00+27з78295 0.2 10211279
15:00+30з77245 0.0 10203101
18:00+30зсз6724100 0.0 10192980
21:00+25з343379 0.0 101742
16 мая, вс
вс1600:00+21сз4944100 0.0 1018161
03:00+17юв226494 0.0 101819
06:00+17юз476866 0.3 1018127
09:00+23сз354538 0.0 1019496
12:00+27ссз463421 0.0 10181511
15:00+29ссз462820 0.0 10182584
18:00+29ссз562818 0.0 10172796
21:00+25ссв113943 0.0 101711
17 мая, пн
пн1700:00+23ююз2242100 0.0 101712
03:00+21юз474989 0.0 101897
06:00+19зюз475449 0.0 1018113
09:00+26з45365 0.0 1017334
12:00+31з56235 0.0 10162713
15:00+32з672074 0.0 10143833
18:00+32з68204 0.0 10123561
21:00+23зсз71244100 0.2 1013298